Location: Allie Creek
(37.5926°N, 89.8526°W)
Time: 11:51:49
(UTC+00:00)

Meteor 1-11 Rocket - Pass Details

Date: 26 September 2023
Orbit: 831 x 915 km, 81.2° (Epoch: 28 November)

Event Time Altitude Azimuth Distance (km) Brightness Sun altitude
Rises 00:11:50 0° 196° (SSW) 3,358 7.0 -4.8°
Reaches altitude 10° 00:14:14 10° 199° (SSW) 2,431 6.3 -5.2°
Maximum altitude 00:19:41 64° 281° (W) 926 4.3 -6.3°
Drops below altitude 10° 00:25:14 10° 2° (N) 2,477 6.2 -7.4°
Sets 00:27:43 0° 6° (N) 3,428 6.9 -7.9°
